Showing default

YAOGAN 16A, 39011

Orbit data source: Space-Track

YAOGAN 16A, 39011 is a payload satellite owned by PLA GAD (CN) in LEO that was launched on Sun, 25 Nov 2012 UTC via a CHANG ZHENG 4C launch vehicle from the Jiuquan Satellite Launch Center, China (JSC). Payload-class satellites include a variety of spacecraft equipped with specific instruments for various scientific and technological missions. These include communications satellites like Starlink; space stations such as the ISS; scientific satellites like the Hubble; Earth observation satellites from companies like Planet Labs, Umbra, and HawkEye 360; GPS; miniature CubeSats for education and research; and military/defense satellites.

Loading next visibility...
Identifier
39011, 2012-066A
Orbit
LEO
Country
Flag of CNCN / PRC
Related business
Manufacturer
CAST
Mission
Operational Defense Radar Imaging
Bus & Motor
JB-8, Unknown motor
Mass
~500 kg wet, ~500 kg dry
Launch date (UTC)
2012-11-25 (14 years ago)
Launch vehicle
CHANG ZHENG 4C
Launch site
Jiuquan Satellite Launch Center, China (JSC)
Object type
Payload
Rocket body
Debris
Shape & HBR
Box + 2 Pan, 0.5 m
Radar Cross Section
0.446 m², Large (>1 m²)

Expand to show TLE details & history
Last TLE update: 2 days ago

TLE from 2 days ago
0 YAOGAN 16A
1 39011U 12066A   26171.44999929 -.00000075  00000-0  14895-4 0  9995
2 39011  63.3544 281.3766 0435680  27.1580 335.1523 13.45516487666580
Epoch: 2026-06-20T10:47Z
TLE epoch observation values (Epoch: 2026-06-20T10:47:59.938Z)
Latitude
-0.00006°
Longitude
-149.28763°
Altitude
797.988 km
Speed
7.6 km/s
True Right ascension
18h 45m 30s
True Declination
0° 00' 00"
Sunlit
Object was in full shadow at epoch
Visualization orbit readout
Latitude
Unknown
Longitude
Unknown
Altitude
Unknown
Speed
Unknown
Apparent Right ascension
Unknown
Apparent Declination
Unknown
Sunlit
N/A
Visualization observer readout
Local Sidereal Time
00:39:50
Azimuth
Unknown
Elevation
Unknown
Doppler factor
Unknown
Orbital elements
Apogee altitude
1,412.9 km
Perigee altitude
762.363 km
Semi-major axis
7,465.769 km
Eccentricity
0.04357
Inclination
63.3544°
RAAN
281.3766°
Arg. of periapsis
27.158°
True anomaly
332.94613°
Mean anomaly
335.1523°
Eccentric anomaly
334.06038°
Mean motion
3.36458 °/min
Orbital period
107 mins
BSTAR
0.000014895
Loading maneuver chart data...
Computing Atmospheric mass density...
Loading historical data...
Loading historical data...
Loading historical data...
Loading historical data...
Loading historical data...
Loading historical data...
Loading historical data...

Documentation

Showing up to 5 results
|